If you wish to contribute or participate in the discussions about articles you are invited to join SKYbrary as a registered user

 Actions

Amado Nervo National Airport

From SKYbrary Wiki

MMEP
Airport
ICAO: MMEP – IATA: TPQ
Summary
Name Amado Nervo National Airport
Region South America and Caribbean
Territory Mexico MX.gif
Location Tepic, Nayarit
Serving Tepic
Elevation 920.496 m
3,020 ft
3,020 ft920.496 m
Type medium airport
Coordinates 21° 25' 10.0308", -104° 50' 33.2916"
Runways
Designator Length Width Surface ROPS
2/20 2300 m7,545.932 ft 45 m147.638 ft ASP /


METAR
Observation MMEP 202354Z 24007KT 7SM SCT015 BKN040 OVC070 22/19 A3000 RMK SLP143 57008 902 8/57/ PCPN W
Station Tepic, Nay.
Date/Time 20 June 2018 23:54:00
Wind direction 240°
Wind speed 07 kts
Lowest cloud amount scattered clouds
Temperature 22°C
Dew point 19°C
Humidity 83%
QNH hPa
Weather condition n/a

Amado Nervo national Airport or Tepic Airport is an international airport located at Tepic and the main airport in the Mexican state of Nayarit.

Climatology

Humid subtropical climate (Köppen climate classification Cwa)

Maps

Terrain

Loading map...

Airport Layout

Loading map...


Accidents & Serious Incidents at or in vicinity of MMEP

None on SKYbrary